sat.trackr.live / text

‹ back to catalog

SITRO-AIS-62

NORAD 67296 · 2025-313BA

PAYLOAD ACTIVE UNKNOWN

§ Identity

Operator
Country
CIS
Launch date
2025-12-28
Launch site
VOSTO
Launch vehicle
Mass (kg)
RCS (m²)

External: N2YO · Heavens-Above · Gunter

§ Orbital elements

Epoch: 2026-09-20T22:26:33.184320Z

Period
94.32 min
Inclination
97.3866°
Eccentricity
0.0008802
Mean motion
15.26760552 rev/d
Perigee alt
479.5 km
Apogee alt
491.5 km
Semi-major
6,863.6 km
B*
2.4131e-4
RAAN
337.9821°
Arg perigee
28.3203°
Mean anomaly
331.8513°
Rev number
4,058

§ Raw data

SITRO-AIS-621 67296U 25313BA  26263.93510630  .00006282  00000+0  24131-3 0  99912 67296  97.3866 337.9821 0008802  28.3203 331.8513 15.26760552 40580

JSON: /api/v1/satellites/67296 · /tle

For live sub-satellite position, see the globe view (requires WebGL).

§ Visibility from observer

Set your observer location to see the next 7 days of passes ≥ 10°. The values pass through the URL so the page stays shareable.

No JS? Fill the form by hand. The geolocation button needs JavaScript.